{"data":{"norad_id":59670,"intl_designator":"2024-084S","name":"STARLINK-31860","alt_names":[],"object_type":"PAYLOAD","status":"ACTIVE","operator":null,"country":"US","launch_date":"2024-05-06","launch_site_code":"AFETR","launch_vehicle":null,"mission":null,"orbit_class":"UNKNOWN","rcs_meters":null,"size_class":null,"mass_kg":null,"dimensions":null,"purposes":["comms"],"wikipedia_slug":null,"has_3d_model":false,"image_url":null,"decayed_at":null,"tle_current":{"epoch":"2026-09-21T07:52:47.364672Z","epoch_age_seconds":99767,"freshness":"FRESH","line1":"1 59670U 24084S   26264.32832598  .00000282  00000+0  19757-4 0  9999","line2":"2 59670  43.0016  13.4619 0000958 280.9486  79.1258 15.27581645134314","mean_motion":15.27581645,"eccentricity":9.58e-5,"inclination_deg":43.0016,"raan_deg":13.4619,"arg_perigee_deg":280.9486,"mean_anomaly_deg":79.1258,"bstar":1.9757e-5,"rev_number":13431,"period_min":94.26664720104,"perigee_km":482.38686916617,"apogee_km":483.7014714784,"semimajor_km":6861.1811703223,"source":"CELESTRAK","updated_at":"2026-09-22T09:00:49.028984Z"}}}